sat.trackr.live / text

‹ back to catalog

STARLINK-11182 [DTC]

NORAD 60399 · 2024-141B

PAYLOAD ACTIVE UNKNOWN

§ Identity

Operator
Country
US
Launch date
2024-08-10
Launch site
AFETR
Launch vehicle
Mass (kg)
RCS (m²)

Purposes: comms

External: N2YO · Heavens-Above · Gunter

§ Orbital elements

Epoch: 2026-05-25T02:01:18.151968Z

Period
91.74 min
Inclination
53.1581°
Eccentricity
0.0000773
Mean motion
15.69703867 rev/d
Perigee alt
359.2 km
Apogee alt
360.3 km
Semi-major
6,737.9 km
B*
1.8238e-5
RAAN
69.5091°
Arg perigee
68.2286°
Mean anomaly
291.8814°
Rev number
10,374

§ Raw data

STARLINK-11182 [DTC]1 60399U 24141B   26145.08423787  .00001621  00000+0  18238-4 0  99912 60399  53.1581  69.5091 0000773  68.2286 291.8814 15.69703867103741

JSON: /api/v1/satellites/60399 · /tle

For live sub-satellite position, see the globe view (requires WebGL).

§ Visibility from observer

Set your observer location to see the next 7 days of passes ≥ 10°. The values pass through the URL so the page stays shareable.

No JS? Fill the form by hand. The geolocation button needs JavaScript.